KB8DOA Weather Reports


Display with metric or nautical units.
time (UTC)temp
F
wind
direction
speed
MPH
gust
MPH
rain 1hr
in
rain 24hr
in
rain mn
in
humidity
%
barometer
mb
20260503024004 82 237 1.0 5.0 0.00 0.00 0.00 71 1011.3
20260503023504 82 241 1.0 5.0 0.00 0.00 0.00 71 1011.2
20260503023004 82 158 1.0 3.0 0.00 0.00 0.00 71 1011.2
20260503022503 82 136 2.0 6.0 0.00 0.00 0.00 70 1011.1
20260503021504 83 127 1.0 5.0 0.00 0.00 0.00 68 1011.1
20260503021003 83 143 2.0 6.0 0.00 0.00 0.00 68 1011.0
20260503020504 83 115 1.0 3.0 0.00 0.00 0.00 67 1011.1
20260503020004 83 135 1.0 5.0 0.00 0.00 0.00 66 1011.0
20260503015504 83 239 1.0 5.0 0.00 0.00 0.00 66 1011.0
20260503015004 83 147 2.0 7.0 0.00 0.00 0.00 65 1011.0
20260503014504 83 273 2.0 5.0 0.00 0.00 0.00 64 1011.2
20260503013505 83 272 1.0 5.0 0.00 0.00 0.00 63 1011.1
20260503013004 84 132 1.0 5.0 0.00 0.00 0.00 62 1011.1
20260503012504 84 102 1.0 5.0 0.00 0.00 0.00 60 1011.2
20260503012003 84 287 1.0 7.0 0.00 0.00 0.00 60 1011.4
20260503011504 84 282 1.0 7.0 0.00 0.00 0.00 59 1011.4
20260503011004 84 238 1.0 8.0 0.00 0.00 0.00 58 1011.3
20260503010003 85 269 2.0 5.0 0.00 0.00 0.00 57 1011.5
20260503005503 85 275 3.0 8.0 0.00 0.00 0.00 56 1011.8
20260503005004 85 251 2.0 8.0 0.00 0.00 0.00 56 1012.0
20260503004504 85 253 2.0 8.0 0.00 0.00 0.00 55 1012.0
20260503003504 86 111 1.0 5.0 0.00 0.00 0.00 55 1011.3
20260503003004 86 234 2.0 7.0 0.00 0.00 0.00 54 1011.3
20260503002003 87 268 2.0 6.0 0.00 0.00 0.00 52 1011.6
20260503001503 87 256 2.0 7.0 0.00 0.00 0.00 51 1011.6
20260503001003 87 276 1.0 7.0 0.00 0.00 0.00 50 1011.4
20260503000504 87 162 2.0 8.0 0.00 0.00 0.00 48 1011.9
20260503000004 88 33 1.0 8.0 0.00 0.00 0.00 46 1012.3
20260502235504 88 125 2.0 8.0 0.00 0.00 0.00 45 1012.5
20260502235004 88 269 2.0 7.0 0.00 0.00 0.00 43 1012.7
20260502234504 89 251 2.0 7.0 0.00 0.00 0.00 42 1012.8
20260502234004 89 135 2.0 6.0 0.00 0.00 0.00 42 1012.5
20260502233504 89 252 2.0 6.0 0.00 0.00 0.00 41 1012.5
20260502233004 89 168 1.0 5.0 0.00 0.00 0.00 41 1012.4
20260502232503 89 208 2.0 8.0 0.00 0.00 0.00 40 1012.3
20260502231504 90 101 1.0 5.0 0.00 0.00 0.00 39 1012.1
20260502231003 90 290 2.0 6.0 0.00 0.00 0.00 38 1012.0
20260502230504 91 129 1.0 6.0 0.00 0.00 0.00 38 1012.0
20260502230004 91 142 1.0 6.0 0.00 0.00 0.00 38 1011.9
20260502225504 92 124 2.0 5.0 0.00 0.00 0.00 37 1011.7
20260502225004 92 166 1.0 5.0 0.00 0.00 0.00 37 1011.7
20260502224504 92 118 2.0 7.0 0.00 0.00 0.00 36 1012.1
20260502224004 92 164 2.0 3.0 0.00 0.00 0.00 36 1012.3
20260502223504 92 234 2.0 5.0 0.00 0.00 0.00 37 1012.6
20260502223004 92 159 2.0 5.0 0.00 0.00 0.00 38 1011.7
20260502222504 92 209 2.0 7.0 0.00 0.00 0.00 38 1012.0
20260502222004 92 131 2.0 7.0 0.00 0.00 0.00 38 1011.9
20260502221503 92 129 2.0 8.0 0.00 0.00 0.00 38 1011.9
20260502221004 92 146 2.0 7.0 0.00 0.00 0.00 38 1011.8
20260502220004 92 226 2.0 8.0 0.00 0.00 0.00 37 1011.5
20260502215504 92 165 2.0 7.0 0.00 0.00 0.00 36 1011.7
20260502214503 92 134 2.0 5.0 0.00 0.00 0.00 36 1011.9
20260502214004 92 136 2.0 6.0 0.00 0.00 0.00 36 1011.5
20260502213503 92 125 2.0 8.0 0.00 0.00 0.00 36 1011.3
20260502213004 93 169 2.0 7.0 0.00 0.00 0.00 35 1011.6
20260502212504 92 204 3.0 8.0 0.00 0.00 0.00 35 1011.4
20260502211503 93 143 2.0 6.0 0.00 0.00 0.00 34 1011.6
20260502211004 93 145 2.0 6.0 0.00 0.00 0.00 35 1011.4
20260502210504 93 287 3.0 12.0 0.00 0.00 0.00 34 1011.2
20260502210004 93 273 3.0 7.0 0.00 0.00 0.00 34 1011.7
20260502205504 93 289 2.0 12.0 0.00 0.00 0.00 36 1011.5
20260502205004 93 147 2.0 7.0 0.00 0.00 0.00 36 1010.9
20260502204504 93 129 2.0 7.0 0.00 0.00 0.00 35 1011.2
20260502204004 93 274 2.0 8.0 0.00 0.00 0.00 34 1011.6
20260502202504 93 227 2.0 8.0 0.00 0.00 0.00 35 1013.0
20260502202005 93 98 2.0 6.0 0.00 0.00 0.00 40 1011.6
20260502201504 93 306 2.0 8.0 0.00 0.00 0.00 39 1011.7
20260502201004 93 231 2.0 7.0 0.00 0.00 0.00 37 1012.1
20260502200504 93 105 2.0 7.0 0.00 0.00 0.00 38 1012.9
20260502200003 93 154 2.0 6.0 0.00 0.00 0.00 41 1012.0
20260502195504 94 133 2.0 5.0 0.00 0.00 0.00 40 1012.2
20260502195005 93 127 2.0 6.0 0.00 0.00 0.00 39 1012.6
20260502194504 93 134 2.0 5.0 0.00 0.00 0.00 41 1012.2
20260502194004 93 120 2.0 7.0 0.00 0.00 0.00 40 1012.7
20260502192004 94 183 2.0 8.0 0.00 0.00 0.00 41 1011.9
20260502191503 94 205 2.0 8.0 0.00 0.00 0.00 38 1012.5
20260502191005 94 140 2.0 7.0 0.00 0.00 0.00 39 1013.1
20260502190504 93 123 2.0 6.0 0.00 0.00 0.00 40 1012.4
20260502190004 93 267 2.0 9.0 0.00 0.00 0.00 40 1013.1
20260502185504 93 154 3.0 10.0 0.00 0.00 0.00 41 1012.7
20260502185004 93 99 2.0 8.0 0.00 0.00 0.00 41 1013.2
20260502184504 92 158 2.0 7.0 0.00 0.00 0.00 44 1013.6
20260502183503 91 136 2.0 5.0 0.00 0.00 0.00 50 1013.0
20260502182505 91 130 1.0 5.0 0.00 0.00 0.00 51 1012.7
20260502182004 91 166 2.0 7.0 0.00 0.00 0.00 50 1012.5
20260502181504 92 183 2.0 6.0 0.00 0.00 0.00 48 1013.4
20260502180504 90 156 2.0 7.0 0.00 0.00 0.00 54 1012.6
20260502170504 87 154 3.0 8.0 0.00 0.00 0.00 65 1011.0
20260502164003 88 193 2.0 7.0 0.00 0.00 0.00 63 1012.2
20260502163503 88 155 2.0 6.0 0.00 0.00 0.00 62 1013.1
20260502163004 87 154 3.0 7.0 0.00 0.00 0.00 64 1011.8
20260502162504 86 161 2.0 8.0 0.00 0.00 0.00 66 1012.4
20260502162004 86 159 3.0 7.0 0.00 0.00 0.00 69 1010.9
20260502161504 86 182 2.0 8.0 0.00 0.00 0.00 71 1010.6
20260502161004 85 146 1.0 6.0 0.00 0.00 0.00 72 1010.1
20260502160504 85 181 2.0 7.0 0.00 0.00 0.00 71 1010.2
20260502152003 85 171 6.0 9.0 0.00 0.00 0.00 71 1010.2
20260502151503 86 174 2.0 6.0 0.00 0.00 0.00 71 1010.6
20260502151004 85 160 3.0 9.0 0.00 0.00 0.00 71 1010.5
20260502150504 85 170 3.0 9.0 0.00 0.00 0.00 73 1010.2
20260502130504 82 162 2.0 8.0 0.00 0.00 0.00 80 1009.5
20260502123504 82 158 2.0 6.0 0.00 0.00 0.00 80 1009.8
20260502123004 82 157 2.0 6.0 0.00 0.00 0.00 80 1009.5
20260502121503 81 179 2.0 6.0 0.00 0.00 0.00 83 1010.5
20260502120504 80 173 1.0 8.0 0.00 0.00 0.00 86 1011.6
20260502115505 79 118 0.0 7.0 0.00 0.00 0.00 90 1012.5
20260502115004 78 152 2.0 5.0 0.00 0.00 0.00 91 1012.4
20260502114004 78 96 0.0 1.0 0.00 0.00 0.00 91 1012.4
20260502113504 78 101 0.0 1.0 0.00 0.00 0.00 91 1012.4
20260502113004 77 87 0.0 0.0 0.00 0.00 0.00 92 1012.4
20260502112504 77 87 0.0 2.0 0.00 0.00 0.00 91 1012.4
20260502112004 77 88 1.0 2.0 0.00 0.00 0.00 91 1012.4
20260502111504 77 210 0.0 1.0 0.00 0.00 0.00 91 1012.4
20260502111004 77 357 0.0 2.0 0.00 0.00 0.00 91 1012.4
20260502110503 77 124 0.0 1.0 0.00 0.00 0.00 91 1012.4
20260502110004 76 77 0.0 2.0 0.00 0.00 0.00 91 1012.4
20260502105504 76 83 1.0 2.0 0.00 0.00 0.00 91 1012.4
20260502104504 76 23 0.0 0.0 0.00 0.00 0.00 91 1012.3
20260502104004 76 75 1.0 1.0 0.00 0.00 0.00 91 1012.3
20260502103504 76 65 0.0 1.0 0.00 0.00 0.00 91 1012.2
20260502103004 76 90 0.0 1.0 0.00 0.00 0.00 91 1012.2
20260502102503 76 96 0.0 1.0 0.00 0.00 0.00 91 1012.3
20260502101504 76 72 0.0 0.0 0.00 0.00 0.00 90 1012.4
20260502101004 76 33 0.0 1.0 0.00 0.00 0.00 90 1012.4
20260502091503 77 140 0.0 3.0 0.00 0.00 0.00 91 1012.1
20260502091004 77 156 1.0 6.0 0.00 0.00 0.00 91 1012.1
20260502090504 76 115 0.0 1.0 0.00 0.00 0.00 91 1012.0
20260502071503 76 17 0.0 0.0 0.00 0.00 0.00 89 1012.2
20260502071004 76 17 0.0 1.0 0.00 0.00 0.00 89 1012.2
20260502070504 76 68 0.0 1.0 0.00 0.00 0.00 89 1012.1
20260502064504 77 52 0.0 1.0 0.00 0.00 0.00 88 1012.3
20260502063004 77 102 0.0 1.0 0.00 0.00 0.00 87 1012.4
20260502062503 77 80 0.0 1.0 0.00 0.00 0.00 87 1012.4
20260502062003 77 168 0.0 1.0 0.00 0.00 0.00 87 1012.4
20260502061504 77 153 0.0 2.0 0.00 0.00 0.00 87 1012.4
20260502060503 77 143 1.0 2.0 0.00 0.00 0.00 87 1012.3
20260502060003 77 166 1.0 3.0 0.00 0.00 0.00 87 1012.3
20260502055004 78 169 1.0 2.0 0.00 0.00 0.00 87 1012.4
20260502054503 78 162 1.0 3.0 0.00 0.00 0.00 87 1012.5
20260502054004 78 156 1.0 3.0 0.00 0.00 0.00 87 1012.4
20260502053004 78 151 1.0 2.0 0.00 0.00 0.00 87 1012.4
20260502052504 78 159 1.0 3.0 0.00 0.00 0.00 86 1012.5
20260502051504 78 159 0.0 3.0 0.00 0.00 0.00 86 1012.5
20260502050503 78 167 1.0 5.0 0.00 0.00 0.00 86 1012.6
20260502045004 78 149 1.0 3.0 0.00 0.00 0.00 86 1012.8
20260502044504 78 142 1.0 3.0 0.00 0.00 0.00 86 1012.9
20260502044004 78 160 0.0 3.0 0.00 0.00 0.00 86 1012.9
20260502043504 78 160 0.0 3.0 0.00 0.00 0.00 86 1013.0
20260502043003 78 157 1.0 3.0 0.00 0.00 0.00 86 1013.1
20260502042004 78 142 0.0 3.0 0.00 0.00 0.00 85 1013.2
20260502041504 78 148 1.0 3.0 0.00 0.00 0.00 85 1013.2
20260502041004 78 140 1.0 2.0 0.00 0.00 0.00 84 1013.3
20260502035504 79 137 0.0 1.0 0.00 0.00 0.00 83 1013.0
20260502035004 79 148 0.0 3.0 0.00 0.00 0.00 82 1012.9
20260502034504 79 161 0.0 2.0 0.00 0.00 0.00 82 1012.9
20260502034004 79 150 0.0 2.0 0.00 0.00 0.00 82 1012.9
20260502033505 79 156 0.0 2.0 0.00 0.00 0.00 82 1012.8
20260502033004 79 156 0.0 5.0 0.00 0.00 0.00 82 1012.7
20260502032504 79 156 1.0 5.0 0.00 0.00 0.00 82 1012.8
20260502031004 80 158 1.0 2.0 0.00 0.00 0.00 82 1012.7
20260502030503 80 133 0.0 3.0 0.00 0.00 0.00 81 1012.7
20260502030004 80 160 2.0 6.0 0.00 0.00 0.00 81 1012.9
20260502025504 80 153 1.0 3.0 0.00 0.00 0.00 81 1012.9
20260502025003 80 148 0.0 3.0 0.00 0.00 0.00 80 1012.6